DECAYED

OBJECT P, 62390 (Decayed)

Orbit data source: Space-Track

You're viewing an Uncataloged Satellite

Recently launched and/or uncataloged satellites may have evolving metadata. Metadata may include but not limited to: Owner, Maufacturer, Bus, Motor, and Mission.

OBJECT P, 62390 was a satellite in LEO that was launched on Sat, 21 Dec 2024 UTC launched from the Air Force Western Test Range (AFWTR). Unknown objects in Earth's orbit typically refer to objects detected orbiting the Earth but have not yet been identified or cataloged. These objects could be anything from previously untracked satellites, spent rocket stages, debris from satellite collisions, or even natural meteoroids temporarily captured by Earth's gravity. This object's orbit decayed before it could be identified.

Loading next visibility...
Identifier
62390, 2024-247P
Orbit
Decayed
Country
Flag of TBDTBD
Related business
None
Manufacturer
Unknown
Mission
Operational spacecraft
Bus & Motor
Unknown
Mass
Unknown
Launch date (UTC)
2024-12-21 (1 year ago)
Launch vehicle
Unknown
Launch site
Air Force Western Test Range (AFWTR)
Object type
Unknown
Shape & HBR
Unknown
Radar Cross Section
RCS unknown

Expand to show TLE details & history
Last TLE update: 1 year ago

TLE from 1 year ago
0 OBJECT P
1 62390U 24247P   25005.72872000  .00016217  00000-0  81076-3 0  9999
2 62390  44.9991 278.8774 0001451 324.2414  35.8368 15.17317663  2456
Epoch: 2025-01-05T17:29Z
TLE epoch observation values (Epoch: 2025-01-05T17:29:21.408Z)
Latitude
0.00002°
Longitude
-89.0222°
Altitude
513.139 km
Speed
7.609 km/s
True Right ascension
18h 35m 30s
True Declination
0° 00' 00"
Sunlit
Object was in daylight at epoch
Visualization orbit readout
Latitude
Unknown
Longitude
Unknown
Altitude
Unknown
Speed
Unknown
Apparent Right ascension
Unknown
Apparent Declination
Unknown
Sunlit
N/A
Visualization observer readout
Local Sidereal Time
12:10:16
Azimuth
Unknown
Elevation
Unknown
Doppler factor
Unknown
Orbital elements
Apogee altitude
516.554 km
Perigee altitude
514.553 km
Semi-major axis
6,893.69 km
Eccentricity
0.00015
Inclination
44.9991°
RAAN
278.8774°
Arg. of periapsis
324.2414°
True anomaly
35.84654°
Mean anomaly
35.8368°
Eccentric anomaly
35.84167°
Mean motion
3.79198 °/min
Orbital period
94.94 mins
BSTAR
0.00081076
Loading maneuver chart data...
Computing Atmospheric mass density...
Loading historical data...
Loading historical data...
Loading historical data...
Loading historical data...
Loading historical data...
Loading historical data...
Loading historical data...

Documentation

Showing up to 5 results
|